COSMOS 2500 (755)

Last updated on Mon Jun 22 2026 00:03:26 GMT+0000 (Coordinated Universal Time)

1 40001U 14032A 26172.26192068 -.00000067 00000+0 00000+0 0 9999 2 40001 65.2298 313.5443 0007492 184.9913 174.9944 2.13105734 93544
UTC large
Height (km)
Speed (km/s)
/
Latitude / Longitude
Inclination (degrees)
Orbital Period (minutes)
Azimuth
Elevation
Range (km)
Doppler Factor

Next 0 passes for location: London (51.5072 / 0.1276)

No passes found over London.
COSMOS 2500 (755)